Time,TemperatureF,DewpointF,PressureIn,WindDirection,WindDirectionDegrees,WindSpeedMPH,WindSpeedGustMPH,Humidity,HourlyPrecipIn,Conditions,Clouds,dailyrainin,SolarRadiationWatts/m^2,SoftwareType,DateUTC
2013-05-17 00:01:00,68.3,63.3,29.89,SSE,160,0.0,0.0,84,0.00,,,0.00,0.00,VWS V14.01,2013-05-17 05:01:00,
2013-05-17 00:06:00,68.3,63.3,29.88,SSE,161,2.0,6.0,84,0.00,,,0.00,0.00,VWS V14.01,2013-05-17 05:06:00,
2013-05-17 00:11:00,68.5,63.5,29.88,SE,145,2.0,5.0,84,0.00,,,0.00,0.00,VWS V14.01,2013-05-17 05:11:00,
2013-05-17 00:16:00,68.7,63.3,29.88,SSW,194,7.0,10.0,83,0.00,,,0.00,0.00,VWS V14.01,2013-05-17 05:16:00,
2013-05-17 00:21:00,68.8,63.4,29.89,SSE,167,1.0,8.0,83,0.00,,,0.00,0.00,VWS V14.01,2013-05-17 05:21:00,
2013-05-17 00:26:00,68.9,63.2,29.88,South,184,0.0,9.0,82,0.00,,,0.00,0.00,VWS V14.01,2013-05-17 05:26:00,
2013-05-17 00:31:00,68.8,63.1,29.88,SSE,153,0.0,3.0,82,0.00,,,0.00,0.00,VWS V14.01,2013-05-17 05:31:00,
2013-05-17 00:36:00,68.8,63.1,29.88,South,178,3.0,7.0,82,0.00,,,0.00,0.00,VWS V14.01,2013-05-17 05:36:00,
2013-05-17 00:41:00,68.8,63.1,29.89,SSE,155,3.0,6.0,82,0.00,,,0.00,0.00,VWS V14.01,2013-05-17 05:41:00,
2013-05-17 00:46:00,68.7,63.0,29.89,South,169,2.0,6.0,82,0.00,,,0.00,0.00,VWS V14.01,2013-05-17 05:46:00,
2013-05-17 00:51:00,68.6,62.9,29.89,SSW,195,1.0,4.0,82,0.00,,,0.00,0.00,VWS V14.01,2013-05-17 05:51:00,
2013-05-17 00:56:00,68.5,62.8,29.89,South,185,0.0,4.0,82,0.00,,,0.00,0.00,VWS V14.01,2013-05-17 05:56:00,
2013-05-17 01:01:00,68.5,62.8,29.89,SSE,160,0.0,3.0,82,0.00,,,0.00,0.00,VWS V14.01,2013-05-17 06:01:00,
2013-05-17 01:06:00,68.5,62.5,29.89,SSE,155,3.0,7.0,81,0.00,,,0.00,0.00,VWS V14.01,2013-05-17 06:06:00,
2013-05-17 01:11:00,68.5,62.5,29.89,South,171,1.0,5.0,81,0.00,,,0.00,0.00,VWS V14.01,2013-05-17 06:11:00,
2013-05-17 01:16:00,68.5,62.5,29.89,SSE,160,0.0,6.0,81,0.00,,,0.00,0.00,VWS V14.01,2013-05-17 06:16:00,
2013-05-17 01:21:00,68.5,62.5,29.89,South,171,0.0,4.0,81,0.00,,,0.00,0.00,VWS V14.01,2013-05-17 06:21:00,
2013-05-17 01:26:00,68.5,62.5,29.89,SSE,168,0.0,5.0,81,0.00,,,0.00,0.00,VWS V14.01,2013-05-17 06:26:00,
2013-05-17 01:31:00,68.3,62.6,29.89,SSE,164,2.0,4.0,82,0.00,,,0.00,0.00,VWS V14.01,2013-05-17 06:31:00,
2013-05-17 01:36:00,68.3,62.6,29.89,SSE,166,0.0,7.0,82,0.00,,,0.00,0.00,VWS V14.01,2013-05-17 06:36:00,
2013-05-17 01:41:00,68.3,62.6,29.88,SSE,163,1.0,2.0,82,0.00,,,0.00,0.00,VWS V14.01,2013-05-17 06:41:00,
2013-05-17 01:46:00,68.2,62.8,29.88,SSE,163,0.0,2.0,83,0.00,,,0.00,0.00,VWS V14.01,2013-05-17 06:46:00,
2013-05-17 01:51:00,68.1,62.8,29.88,SSE,155,0.0,1.0,83,0.00,,,0.00,0.00,VWS V14.01,2013-05-17 06:51:00,
2013-05-17 01:56:00,68.0,62.7,29.88,SSE,161,0.0,3.0,83,0.00,,,0.00,0.00,VWS V14.01,2013-05-17 06:56:00,
2013-05-17 02:01:00,67.9,62.5,29.88,SSE,161,0.0,1.0,83,0.00,,,0.00,0.00,VWS V14.01,2013-05-17 07:01:00,
2013-05-17 02:06:00,67.8,62.8,29.88,SSE,161,0.0,2.0,84,0.00,,,0.00,0.00,VWS V14.01,2013-05-17 07:06:00,
2013-05-17 02:11:00,67.7,62.7,29.87,ESE,119,0.0,2.0,84,0.00,,,0.00,0.00,VWS V14.01,2013-05-17 07:11:00,
2013-05-17 02:16:00,67.7,63.0,29.87,SSE,155,0.0,5.0,85,0.00,,,0.00,0.00,VWS V14.01,2013-05-17 07:16:00,
2013-05-17 02:21:00,67.7,63.0,29.87,ESE,117,0.0,1.0,85,0.00,,,0.00,0.00,VWS V14.01,2013-05-17 07:21:00,
2013-05-17 02:26:00,67.6,62.9,29.87,ESE,121,0.0,3.0,85,0.00,,,0.00,0.00,VWS V14.01,2013-05-17 07:26:00,
2013-05-17 02:31:00,67.6,62.9,29.87,ESE,118,0.0,6.0,85,0.00,,,0.00,0.00,VWS V14.01,2013-05-17 07:31:00,
2013-05-17 02:36:00,67.7,63.4,29.87,SE,142,4.0,8.0,86,0.00,,,0.00,0.00,VWS V14.01,2013-05-17 07:36:00,
2013-05-17 02:41:00,67.7,63.4,29.87,SE,145,1.0,12.0,86,0.00,,,0.00,0.00,VWS V14.01,2013-05-17 07:41:00,
2013-05-17 02:46:00,67.6,63.3,29.86,SSE,164,1.0,12.0,86,0.00,,,0.00,0.00,VWS V14.01,2013-05-17 07:46:00,
2013-05-17 02:51:00,67.6,63.6,29.87,SE,130,0.0,5.0,87,0.00,,,0.00,0.00,VWS V14.01,2013-05-17 07:51:00,
2013-05-17 02:56:00,67.5,63.5,29.87,SE,137,0.0,5.0,87,0.00,,,0.00,0.00,VWS V14.01,2013-05-17 07:56:00,
2013-05-17 03:01:00,67.4,63.4,29.87,SE,124,0.0,3.0,87,0.00,,,0.00,0.00,VWS V14.01,2013-05-17 08:01:00,
2013-05-17 03:06:00,67.4,63.7,29.87,ESE,118,3.0,4.0,88,0.00,,,0.00,0.00,VWS V14.01,2013-05-17 08:06:00,
2013-05-17 03:11:00,67.4,63.7,29.87,ESE,117,2.0,5.0,88,0.00,,,0.00,0.00,VWS V14.01,2013-05-17 08:11:00,
2013-05-17 03:16:00,67.4,63.7,29.87,SE,127,1.0,5.0,88,0.00,,,0.00,0.00,VWS V14.01,2013-05-17 08:16:00,
2013-05-17 03:21:00,67.4,63.7,29.86,ESE,121,3.0,7.0,88,0.00,,,0.00,0.00,VWS V14.01,2013-05-17 08:21:00,
2013-05-17 03:26:00,67.4,63.7,29.86,ENE,57,2.0,7.0,88,0.00,,,0.00,0.00,VWS V14.01,2013-05-17 08:26:00,
2013-05-17 03:31:00,67.4,64.1,29.87,SE,139,0.0,2.0,89,0.00,,,0.00,0.00,VWS V14.01,2013-05-17 08:31:00,
2013-05-17 03:36:00,67.4,64.1,29.87,SE,126,1.0,4.0,89,0.00,,,0.00,0.00,VWS V14.01,2013-05-17 08:36:00,
2013-05-17 03:41:00,67.5,64.2,29.87,South,171,4.0,5.0,89,0.00,,,0.00,0.00,VWS V14.01,2013-05-17 08:41:00,
2013-05-17 03:46:00,67.5,64.2,29.87,South,169,0.0,5.0,89,0.00,,,0.00,0.00,VWS V14.01,2013-05-17 08:46:00,
2013-05-17 03:51:00,67.5,64.2,29.87,SE,143,0.0,6.0,89,0.00,,,0.00,0.00,VWS V14.01,2013-05-17 08:51:00,
2013-05-17 03:56:00,67.5,64.2,29.87,SE,142,0.0,6.0,89,0.00,,,0.00,0.00,VWS V14.01,2013-05-17 08:56:00,
2013-05-17 04:01:00,67.6,64.2,29.87,SSE,160,0.0,3.0,89,0.00,,,0.00,0.00,VWS V14.01,2013-05-17 09:01:00,
2013-05-17 04:06:00,67.8,64.4,29.87,SSE,164,0.0,7.0,89,0.00,,,0.00,0.00,VWS V14.01,2013-05-17 09:06:00,
2013-05-17 04:11:00,67.9,64.5,29.87,SSE,167,1.0,3.0,89,0.00,,,0.00,0.00,VWS V14.01,2013-05-17 09:11:00,
2013-05-17 04:16:00,68.0,64.6,29.87,SSW,213,0.0,4.0,89,0.00,,,0.00,0.00,VWS V14.01,2013-05-17 09:16:00,
2013-05-17 04:21:00,68.0,64.6,29.87,SE,144,4.0,4.0,89,0.00,,,0.00,0.00,VWS V14.01,2013-05-17 09:21:00,
2013-05-17 04:26:00,68.1,64.7,29.87,South,188,0.0,6.0,89,0.00,,,0.00,0.00,VWS V14.01,2013-05-17 09:26:00,
2013-05-17 04:31:00,68.2,64.8,29.87,SE,146,0.0,3.0,89,0.00,,,0.00,0.00,VWS V14.01,2013-05-17 09:31:00,
2013-05-17 04:36:00,68.2,64.8,29.87,SSW,197,5.0,5.0,89,0.00,,,0.00,0.00,VWS V14.01,2013-05-17 09:36:00,
2013-05-17 04:41:00,68.2,64.8,29.86,South,187,0.0,6.0,89,0.00,,,0.00,0.00,VWS V14.01,2013-05-17 09:41:00,
2013-05-17 04:46:00,68.2,64.8,29.86,South,183,2.0,6.0,89,0.00,,,0.00,0.00,VWS V14.01,2013-05-17 09:46:00,
2013-05-17 04:51:00,68.3,65.3,29.87,South,175,0.0,2.0,90,0.00,,,0.00,0.00,VWS V14.01,2013-05-17 09:51:00,
2013-05-17 04:56:00,68.3,65.3,29.87,SSE,164,5.0,5.0,90,0.00,,,0.00,0.00,VWS V14.01,2013-05-17 09:56:00,
2013-05-17 05:01:00,68.3,65.3,29.87,South,182,1.0,4.0,90,0.00,,,0.00,0.00,VWS V14.01,2013-05-17 10:01:00,
2013-05-17 05:06:00,68.2,65.2,29.87,South,175,1.0,6.0,90,0.00,,,0.00,0.00,VWS V14.01,2013-05-17 10:06:00,
2013-05-17 05:11:00,68.2,65.2,29.87,SSE,164,0.0,4.0,90,0.00,,,0.00,0.00,VWS V14.01,2013-05-17 10:11:00,
2013-05-17 05:16:00,68.2,65.2,29.87,South,169,0.0,4.0,90,0.00,,,0.00,0.00,VWS V14.01,2013-05-17 10:16:00,
2013-05-17 05:21:00,68.1,65.1,29.87,South,174,0.0,1.0,90,0.00,,,0.00,0.00,VWS V14.01,2013-05-17 10:21:00,
2013-05-17 05:26:00,68.1,65.1,29.87,ESE,106,0.0,5.0,90,0.00,,,0.00,0.00,VWS V14.01,2013-05-17 10:26:00,
2013-05-17 05:31:00,68.1,65.4,29.87,South,190,0.0,3.0,91,0.00,,,0.00,0.00,VWS V14.01,2013-05-17 10:31:00,
2013-05-17 05:36:00,68.2,65.5,29.87,SSE,148,1.0,6.0,91,0.01,,,0.01,0.00,VWS V14.01,2013-05-17 10:36:00,
2013-05-17 05:41:00,68.2,65.5,29.87,South,175,0.0,1.0,91,0.01,,,0.01,0.00,VWS V14.01,2013-05-17 10:41:00,
2013-05-17 05:46:00,68.2,65.5,29.87,SSE,157,2.0,5.0,91,0.01,,,0.01,0.00,VWS V14.01,2013-05-17 10:46:00,
2013-05-17 05:51:00,68.2,65.5,29.87,SSE,159,1.0,6.0,91,0.01,,,0.01,0.00,VWS V14.01,2013-05-17 10:51:00,
2013-05-17 05:56:00,68.3,65.6,29.87,South,186,4.0,9.0,91,0.01,,,0.01,0.00,VWS V14.01,2013-05-17 10:56:00,
2013-05-17 06:01:00,68.4,65.7,29.87,SW,220,0.0,6.0,91,0.01,,,0.01,0.00,VWS V14.01,2013-05-17 11:01:00,
2013-05-17 06:06:00,68.4,65.7,29.87,SE,134,5.0,10.0,91,0.01,,,0.01,0.00,VWS V14.01,2013-05-17 11:06:00,
2013-05-17 06:11:00,68.5,65.8,29.87,South,191,4.0,5.0,91,0.01,,,0.01,5.00,VWS V14.01,2013-05-17 11:11:00,
2013-05-17 06:16:00,68.5,65.8,29.88,SW,217,9.0,12.0,91,0.01,,,0.01,7.00,VWS V14.01,2013-05-17 11:16:00,
2013-05-17 06:21:00,68.5,65.5,29.88,South,173,4.0,7.0,90,0.01,,,0.01,0.00,VWS V14.01,2013-05-17 11:21:00,
2013-05-17 06:26:00,68.5,65.5,29.88,SSW,196,7.0,9.0,90,0.01,,,0.01,0.00,VWS V14.01,2013-05-17 11:26:00,
2013-05-17 06:31:00,68.5,65.1,29.88,SE,136,9.0,10.0,89,0.01,,,0.01,7.00,VWS V14.01,2013-05-17 11:31:00,
2013-05-17 06:36:00,68.5,64.8,29.88,South,171,7.0,11.0,88,0.01,,,0.01,9.00,VWS V14.01,2013-05-17 11:36:00,
2013-05-17 06:41:00,68.4,64.7,29.89,South,191,0.0,8.0,88,0.00,,,0.01,9.00,VWS V14.01,2013-05-17 11:41:00,
2013-05-17 06:46:00,68.0,64.6,29.89,South,174,4.0,12.0,89,0.02,,,0.03,12.00,VWS V14.01,2013-05-17 11:46:00,
2013-05-17 06:51:00,67.7,64.3,29.89,South,169,11.0,11.0,89,0.02,,,0.03,12.00,VWS V14.01,2013-05-17 11:51:00,
2013-05-17 06:56:00,67.4,64.4,29.89,SW,225,2.0,14.0,90,0.02,,,0.03,14.00,VWS V14.01,2013-05-17 11:56:00,
2013-05-17 07:01:00,67.3,64.3,29.89,SSW,197,3.0,13.0,90,0.02,,,0.03,12.00,VWS V14.01,2013-05-17 12:01:00,
2013-05-17 07:06:00,67.2,64.5,29.89,South,169,4.0,13.0,91,0.02,,,0.03,23.00,VWS V14.01,2013-05-17 12:06:00,
2013-05-17 07:11:00,67.1,64.4,29.89,SSW,196,3.0,7.0,91,0.02,,,0.03,21.00,VWS V14.01,2013-05-17 12:11:00,
2013-05-17 07:16:00,67.0,64.3,29.89,South,186,0.0,9.0,91,0.02,,,0.03,32.00,VWS V14.01,2013-05-17 12:16:00,
2013-05-17 07:21:00,67.0,64.6,29.89,South,187,3.0,5.0,92,0.02,,,0.03,49.00,VWS V14.01,2013-05-17 12:21:00,
2013-05-17 07:26:00,66.7,64.0,29.89,SSW,200,5.0,10.0,91,0.02,,,0.03,54.00,VWS V14.01,2013-05-17 12:26:00,
2013-05-17 07:31:00,66.5,63.8,29.89,South,175,4.0,7.0,91,0.02,,,0.03,54.00,VWS V14.01,2013-05-17 12:31:00,
2013-05-17 07:36:00,66.5,63.8,29.89,SW,214,3.0,8.0,91,0.03,,,0.04,60.00,VWS V14.01,2013-05-17 12:36:00,
2013-05-17 07:41:00,66.3,63.6,29.89,South,190,3.0,7.0,91,0.03,,,0.04,67.00,VWS V14.01,2013-05-17 12:41:00,
2013-05-17 07:46:00,66.1,63.4,29.89,South,182,3.0,11.0,91,0.03,,,0.04,67.00,VWS V14.01,2013-05-17 12:46:00,
2013-05-17 07:51:00,66.0,63.3,29.89,South,178,3.0,6.0,91,0.01,,,0.04,76.00,VWS V14.01,2013-05-17 12:51:00,
2013-05-17 07:56:00,66.0,63.6,29.90,South,183,0.0,8.0,92,0.01,,,0.04,42.00,VWS V14.01,2013-05-17 12:56:00,
2013-05-17 08:01:00,66.0,63.6,29.89,South,187,5.0,5.0,92,0.01,,,0.04,37.00,VWS V14.01,2013-05-17 13:01:00,
2013-05-17 08:06:00,65.9,63.5,29.89,South,183,1.0,5.0,92,0.02,,,0.05,37.00,VWS V14.01,2013-05-17 13:06:00,
2013-05-17 08:11:00,65.8,63.4,29.90,SSE,148,1.0,9.0,92,0.02,,,0.05,28.00,VWS V14.01,2013-05-17 13:11:00,
2013-05-17 08:16:00,65.7,63.3,29.90,South,169,4.0,9.0,92,0.02,,,0.05,35.00,VWS V14.01,2013-05-17 13:16:00,
2013-05-17 08:21:00,65.7,63.3,29.90,South,176,3.0,6.0,92,0.02,,,0.05,28.00,VWS V14.01,2013-05-17 13:21:00,
2013-05-17 08:26:00,65.6,63.2,29.89,SSW,194,0.0,8.0,92,0.02,,,0.05,28.00,VWS V14.01,2013-05-17 13:26:00,
2013-05-17 08:31:00,65.6,63.2,29.89,ESE,113,0.0,3.0,92,0.02,,,0.05,51.00,VWS V14.01,2013-05-17 13:31:00,
2013-05-17 08:36:00,65.6,63.2,29.90,SSW,200,0.0,9.0,92,0.03,,,0.06,63.00,VWS V14.01,2013-05-17 13:36:00,
2013-05-17 08:41:00,65.5,63.1,29.90,South,173,2.0,2.0,92,0.03,,,0.07,28.00,VWS V14.01,2013-05-17 13:41:00,
2013-05-17 08:46:00,65.5,63.4,29.90,SSE,165,0.0,4.0,93,0.03,,,0.07,62.00,VWS V14.01,2013-05-17 13:46:00,
2013-05-17 08:51:00,65.6,63.5,29.90,SSE,164,0.0,2.0,93,0.06,,,0.10,95.00,VWS V14.01,2013-05-17 13:51:00,
2013-05-17 08:56:00,65.6,63.5,29.90,ESE,117,2.0,6.0,93,0.10,,,0.14,67.00,VWS V14.01,2013-05-17 13:56:00,
2013-05-17 09:01:00,65.7,63.6,29.89,ESE,107,0.0,4.0,93,0.12,,,0.16,47.00,VWS V14.01,2013-05-17 14:01:00,
2013-05-17 09:06:00,65.8,63.7,29.89,South,169,3.0,5.0,93,0.12,,,0.16,40.00,VWS V14.01,2013-05-17 14:06:00,
2013-05-17 09:11:00,65.9,63.8,29.90,SE,138,2.0,2.0,93,0.12,,,0.17,42.00,VWS V14.01,2013-05-17 14:11:00,
2013-05-17 09:16:00,66.1,64.3,29.89,South,170,0.0,3.0,94,0.13,,,0.18,32.00,VWS V14.01,2013-05-17 14:16:00,
2013-05-17 09:21:00,66.1,64.3,29.89,South,182,0.0,4.0,94,0.14,,,0.19,39.00,VWS V14.01,2013-05-17 14:21:00,
2013-05-17 09:26:00,66.2,64.4,29.89,SE,145,1.0,4.0,94,0.14,,,0.19,40.00,VWS V14.01,2013-05-17 14:26:00,
2013-05-17 09:31:00,66.2,64.4,29.89,SE,126,0.0,0.0,94,0.14,,,0.19,40.00,VWS V14.01,2013-05-17 14:31:00,
2013-05-17 09:36:00,66.3,64.5,29.89,South,181,0.0,2.0,94,0.15,,,0.20,54.00,VWS V14.01,2013-05-17 14:36:00,
2013-05-17 09:41:00,66.3,64.5,29.89,South,181,0.0,0.0,94,0.14,,,0.21,46.00,VWS V14.01,2013-05-17 14:41:00,
2013-05-17 09:46:00,66.4,64.6,29.89,South,183,0.0,2.0,94,0.14,,,0.21,46.00,VWS V14.01,2013-05-17 14:46:00,
2013-05-17 09:51:00,66.5,64.7,29.89,SSE,159,0.0,0.0,94,0.14,,,0.22,44.00,VWS V14.01,2013-05-17 14:51:00,
2013-05-17 09:56:00,66.5,64.7,29.89,SSE,160,0.0,3.0,94,0.14,,,0.22,51.00,VWS V14.01,2013-05-17 14:56:00,
2013-05-17 10:01:00,66.6,64.8,29.89,SSE,160,0.0,0.0,94,0.08,,,0.23,79.00,VWS V14.01,2013-05-17 15:01:00,
2013-05-17 10:06:00,66.7,64.9,29.89,SSE,167,0.0,3.0,94,0.08,,,0.23,70.00,VWS V14.01,2013-05-17 15:06:00,
2013-05-17 10:11:00,66.8,65.0,29.89,SSE,157,0.0,1.0,94,0.06,,,0.23,60.00,VWS V14.01,2013-05-17 15:11:00,
2013-05-17 10:16:00,66.9,65.1,29.89,SE,137,0.0,4.0,94,0.06,,,0.23,60.00,VWS V14.01,2013-05-17 15:16:00,
2013-05-17 10:21:00,66.8,65.3,29.89,South,172,0.0,2.0,95,0.06,,,0.24,53.00,VWS V14.01,2013-05-17 15:21:00,
2013-05-17 10:26:00,66.9,65.4,29.89,SW,224,0.0,4.0,95,0.06,,,0.24,70.00,VWS V14.01,2013-05-17 15:26:00,
2013-05-17 10:31:00,67.0,65.5,29.89,SSW,198,3.0,3.0,95,0.05,,,0.24,84.00,VWS V14.01,2013-05-17 15:31:00,
2013-05-17 10:36:00,67.1,65.6,29.89,SSW,199,0.0,4.0,95,0.05,,,0.24,91.00,VWS V14.01,2013-05-17 15:36:00,
2013-05-17 10:41:00,67.3,65.8,29.89,SW,228,1.0,5.0,95,0.03,,,0.24,90.00,VWS V14.01,2013-05-17 15:41:00,
2013-05-17 10:46:00,67.5,66.0,29.90,SSW,211,1.0,5.0,95,0.03,,,0.24,156.00,VWS V14.01,2013-05-17 15:46:00,
2013-05-17 10:51:00,67.7,66.2,29.90,SW,219,0.0,4.0,95,0.02,,,0.24,113.00,VWS V14.01,2013-05-17 15:51:00,
2013-05-17 10:56:00,68.0,66.5,29.90,SW,227,0.0,4.0,95,0.02,,,0.24,102.00,VWS V14.01,2013-05-17 15:56:00,
2013-05-17 11:01:00,68.0,66.5,29.89,SW,222,0.0,5.0,95,0.01,,,0.24,111.00,VWS V14.01,2013-05-17 16:01:00,
2013-05-17 11:06:00,68.1,66.6,29.90,WSW,244,2.0,5.0,95,0.01,,,0.24,123.00,VWS V14.01,2013-05-17 16:06:00,
2013-05-17 11:11:00,68.3,66.8,29.90,SW,236,1.0,3.0,95,0.01,,,0.24,153.00,VWS V14.01,2013-05-17 16:11:00,
2013-05-17 11:16:00,68.4,66.9,29.89,West,260,0.0,6.0,95,0.01,,,0.24,178.00,VWS V14.01,2013-05-17 16:16:00,
2013-05-17 11:21:00,68.8,67.3,29.90,WSW,240,0.0,1.0,95,0.00,,,0.24,142.00,VWS V14.01,2013-05-17 16:21:00,
2013-05-17 11:26:00,69.0,67.5,29.89,WSW,242,2.0,4.0,95,0.00,,,0.24,153.00,VWS V14.01,2013-05-17 16:26:00,
2013-05-17 11:31:00,69.1,67.6,29.89,SW,236,2.0,3.0,95,0.00,,,0.24,123.00,VWS V14.01,2013-05-17 16:31:00,
2013-05-17 11:36:00,69.1,67.6,29.89,West,264,0.0,4.0,95,0.00,,,0.24,181.00,VWS V14.01,2013-05-17 16:36:00,
2013-05-17 11:41:00,69.2,67.7,29.89,WSW,238,0.0,0.0,95,0.00,,,0.24,202.00,VWS V14.01,2013-05-17 16:41:00,
2013-05-17 11:46:00,69.4,67.9,29.89,West,275,2.0,4.0,95,0.00,,,0.24,167.00,VWS V14.01,2013-05-17 16:46:00,
2013-05-17 11:51:00,69.5,68.0,29.89,SSW,211,0.0,7.0,95,0.00,,,0.24,135.00,VWS V14.01,2013-05-17 16:51:00,
2013-05-17 11:56:00,69.7,68.2,29.89,WSW,246,0.0,7.0,95,0.00,,,0.24,132.00,VWS V14.01,2013-05-17 16:56:00,
2013-05-17 12:01:00,69.9,68.4,29.89,WSW,252,0.0,1.0,95,0.00,,,0.24,151.00,VWS V14.01,2013-05-17 17:01:00,
2013-05-17 12:06:00,70.0,68.5,29.90,WSW,247,4.0,7.0,95,0.00,,,0.24,146.00,VWS V14.01,2013-05-17 17:06:00,
2013-05-17 12:11:00,70.1,68.6,29.89,SW,218,0.0,4.0,95,0.00,,,0.24,109.00,VWS V14.01,2013-05-17 17:11:00,
2013-05-17 12:16:00,70.1,68.6,29.89,SW,221,0.0,5.0,95,0.00,,,0.24,174.00,VWS V14.01,2013-05-17 17:16:00,
2013-05-17 12:21:00,70.2,68.7,29.89,WSW,245,0.0,2.0,95,0.00,,,0.24,237.00,VWS V14.01,2013-05-17 17:21:00,
2013-05-17 12:26:00,70.4,68.9,29.89,West,276,2.0,7.0,95,0.00,,,0.24,248.00,VWS V14.01,2013-05-17 17:26:00,
2013-05-17 12:31:00,70.6,68.8,29.89,West,263,1.0,4.0,94,0.00,,,0.24,218.00,VWS V14.01,2013-05-17 17:31:00,
2013-05-17 12:36:00,71.0,69.2,29.89,WSW,237,2.0,5.0,94,0.00,,,0.24,301.00,VWS V14.01,2013-05-17 17:36:00,
2013-05-17 12:41:00,71.2,69.4,29.89,West,266,2.0,7.0,94,0.00,,,0.24,206.00,VWS V14.01,2013-05-17 17:41:00,
2013-05-17 12:46:00,71.3,69.2,29.89,SW,232,1.0,7.0,93,0.00,,,0.24,285.00,VWS V14.01,2013-05-17 17:46:00,
2013-05-17 12:51:00,71.6,69.5,29.89,SW,230,0.0,1.0,93,0.00,,,0.24,176.00,VWS V14.01,2013-05-17 17:51:00,
2013-05-17 12:56:00,71.8,69.7,29.90,SSW,210,3.0,5.0,93,0.00,,,0.24,202.00,VWS V14.01,2013-05-17 17:56:00,
2013-05-17 13:01:00,71.9,69.4,29.89,SW,221,0.0,1.0,92,0.00,,,0.24,308.00,VWS V14.01,2013-05-17 18:01:00,
2013-05-17 13:06:00,72.1,69.7,29.89,West,271,2.0,5.0,92,0.00,,,0.24,295.00,VWS V14.01,2013-05-17 18:06:00,
2013-05-17 13:11:00,72.4,69.9,29.89,WSW,238,0.0,6.0,92,0.00,,,0.24,345.00,VWS V14.01,2013-05-17 18:11:00,
2013-05-17 13:16:00,72.6,69.8,29.89,SW,230,1.0,6.0,91,0.00,,,0.24,329.00,VWS V14.01,2013-05-17 18:16:00,
2013-05-17 13:21:00,73.0,69.9,29.89,NW,306,2.0,8.0,90,0.00,,,0.24,452.00,VWS V14.01,2013-05-17 18:21:00,
2013-05-17 13:26:00,73.5,70.1,29.90,WSW,245,1.0,8.0,89,0.00,,,0.24,345.00,VWS V14.01,2013-05-17 18:26:00,
2013-05-17 13:31:00,73.6,69.8,29.90,West,281,0.0,5.0,88,0.00,,,0.24,323.00,VWS V14.01,2013-05-17 18:31:00,
2013-05-17 13:36:00,73.7,69.6,29.90,West,279,3.0,9.0,87,0.00,,,0.24,353.00,VWS V14.01,2013-05-17 18:36:00,
2013-05-17 13:41:00,73.7,69.3,29.90,WSW,239,0.0,3.0,86,0.00,,,0.24,417.00,VWS V14.01,2013-05-17 18:41:00,
2013-05-17 13:46:00,74.2,69.8,29.90,SW,229,1.0,7.0,86,0.00,,,0.24,573.00,VWS V14.01,2013-05-17 18:46:00,
2013-05-17 13:51:00,75.1,70.3,29.90,SW,233,4.0,7.0,85,0.00,,,0.24,573.00,VWS V14.01,2013-05-17 18:51:00,
2013-05-17 13:56:00,75.9,70.4,29.89,WNW,294,10.0,10.0,83,0.00,,,0.24,1085.00,VWS V14.01,2013-05-17 18:56:00,
2013-05-17 14:01:00,76.7,70.8,29.89,South,188,0.0,3.0,82,0.00,,,0.24,401.00,VWS V14.01,2013-05-17 19:01:00,
2013-05-17 14:06:00,77.1,70.5,29.89,WSW,249,2.0,8.0,80,0.00,,,0.24,1296.00,VWS V14.01,2013-05-17 19:06:00,
2013-05-17 14:11:00,77.7,70.7,29.88,SW,229,2.0,9.0,79,0.00,,,0.24,1129.00,VWS V14.01,2013-05-17 19:11:00,
2013-05-17 14:16:00,78.7,71.3,29.88,WNW,282,0.0,9.0,78,0.00,,,0.24,1129.00,VWS V14.01,2013-05-17 19:16:00,
2013-05-17 14:21:00,78.9,70.3,29.88,WNW,288,8.0,11.0,75,0.00,,,0.24,399.00,VWS V14.01,2013-05-17 19:21:00,
2013-05-17 14:26:00,78.9,69.9,29.88,WSW,241,2.0,11.0,74,0.00,,,0.24,1259.00,VWS V14.01,2013-05-17 19:26:00,
2013-05-17 14:31:00,79.1,69.7,29.88,WNW,283,10.0,11.0,73,0.00,,,0.24,1114.00,VWS V14.01,2013-05-17 19:31:00,
2013-05-17 14:36:00,79.5,70.1,29.88,WSW,249,5.0,14.0,73,0.00,,,0.24,376.00,VWS V14.01,2013-05-17 19:36:00,
2013-05-17 14:41:00,79.7,69.9,29.88,West,270,2.0,11.0,72,0.00,,,0.24,355.00,VWS V14.01,2013-05-17 19:41:00,
2013-05-17 14:46:00,79.3,69.1,29.88,West,269,6.0,12.0,71,0.00,,,0.24,404.00,VWS V14.01,2013-05-17 19:46:00,
2013-05-17 14:51:00,78.9,68.7,29.88,West,267,7.0,7.0,71,0.00,,,0.24,431.00,VWS V14.01,2013-05-17 19:51:00,
2013-05-17 14:56:00,78.9,69.1,29.88,West,265,1.0,7.0,72,0.00,,,0.24,369.00,VWS V14.01,2013-05-17 19:56:00,
2013-05-17 15:01:00,79.0,69.2,29.87,WSW,245,5.0,8.0,72,0.00,,,0.24,422.00,VWS V14.01,2013-05-17 20:01:00,
2013-05-17 15:06:00,79.5,69.7,29.87,WSW,257,4.0,10.0,72,0.00,,,0.24,1056.00,VWS V14.01,2013-05-17 20:06:00,
2013-05-17 15:11:00,80.5,70.2,29.87,West,277,4.0,8.0,71,0.00,,,0.24,958.00,VWS V14.01,2013-05-17 20:11:00,
2013-05-17 15:16:00,80.8,68.8,29.87,SW,232,4.0,10.0,67,0.00,,,0.24,257.00,VWS V14.01,2013-05-17 20:16:00,
2013-05-17 15:21:00,80.0,68.1,29.87,West,263,0.0,6.0,67,0.00,,,0.24,227.00,VWS V14.01,2013-05-17 20:21:00,
2013-05-17 15:26:00,79.3,68.3,29.87,SW,224,2.0,10.0,69,0.00,,,0.24,264.00,VWS V14.01,2013-05-17 20:26:00,
2013-05-17 15:31:00,79.3,69.1,29.87,SSW,213,4.0,8.0,71,0.00,,,0.24,888.00,VWS V14.01,2013-05-17 20:31:00,
2013-05-17 15:36:00,79.8,69.2,29.86,WNW,282,5.0,9.0,70,0.00,,,0.24,341.00,VWS V14.01,2013-05-17 20:36:00,
2013-05-17 15:41:00,79.8,68.7,29.86,West,276,2.0,5.0,69,0.00,,,0.24,290.00,VWS V14.01,2013-05-17 20:41:00,
2013-05-17 15:46:00,79.8,69.6,29.86,WSW,250,2.0,7.0,71,0.00,,,0.24,914.00,VWS V14.01,2013-05-17 20:46:00,
2013-05-17 15:51:00,80.5,69.8,29.87,West,280,6.0,9.0,70,0.00,,,0.24,802.00,VWS V14.01,2013-05-17 20:51:00,
2013-05-17 15:56:00,80.9,69.4,29.86,NNW,330,9.0,12.0,68,0.00,,,0.24,784.00,VWS V14.01,2013-05-17 20:56:00,
2013-05-17 16:01:00,81.1,69.1,29.86,West,278,7.0,9.0,67,0.00,,,0.24,788.00,VWS V14.01,2013-05-17 21:01:00,
2013-05-17 16:06:00,81.5,69.1,29.86,WNW,290,8.0,11.0,66,0.00,,,0.24,782.00,VWS V14.01,2013-05-17 21:06:00,
2013-05-17 16:11:00,81.8,69.3,29.86,WNW,283,6.0,9.0,66,0.00,,,0.24,870.00,VWS V14.01,2013-05-17 21:11:00,
2013-05-17 16:16:00,81.9,69.4,29.86,WSW,252,0.0,9.0,66,0.00,,,0.24,870.00,VWS V14.01,2013-05-17 21:16:00,
2013-05-17 16:21:00,82.3,69.4,29.86,West,273,3.0,5.0,65,0.00,,,0.24,754.00,VWS V14.01,2013-05-17 21:21:00,
2013-05-17 16:26:00,82.3,68.9,29.86,WNW,286,4.0,8.0,64,0.00,,,0.24,246.00,VWS V14.01,2013-05-17 21:26:00,
2013-05-17 16:31:00,82.3,69.4,29.86,NW,309,8.0,8.0,65,0.00,,,0.24,724.00,VWS V14.01,2013-05-17 21:31:00,
2013-05-17 16:36:00,82.5,69.6,29.86,WNW,296,3.0,10.0,65,0.00,,,0.24,659.00,VWS V14.01,2013-05-17 21:36:00,
2013-05-17 16:41:00,82.7,69.3,29.86,WNW,283,4.0,6.0,64,0.00,,,0.24,185.00,VWS V14.01,2013-05-17 21:41:00,
2013-05-17 16:46:00,82.5,69.1,29.86,WSW,258,0.0,6.0,64,0.00,,,0.24,258.00,VWS V14.01,2013-05-17 21:46:00,
2013-05-17 16:51:00,82.0,69.1,29.86,West,273,3.0,4.0,65,0.00,,,0.24,350.00,VWS V14.01,2013-05-17 21:51:00,
2013-05-17 16:56:00,82.0,69.5,29.86,SW,235,0.0,4.0,66,0.00,,,0.24,722.00,VWS V14.01,2013-05-17 21:56:00,
2013-05-17 17:01:00,82.3,69.4,29.86,WNW,284,3.0,4.0,65,0.00,,,0.24,276.00,VWS V14.01,2013-05-17 22:01:00,
2013-05-17 17:06:00,82.1,68.3,29.86,West,281,7.0,10.0,63,0.00,,,0.24,329.00,VWS V14.01,2013-05-17 22:06:00,
2013-05-17 17:11:00,82.1,69.2,29.86,WNW,287,6.0,8.0,65,0.00,,,0.24,717.00,VWS V14.01,2013-05-17 22:11:00,
2013-05-17 17:16:00,82.6,68.7,29.85,West,272,7.0,9.0,63,0.00,,,0.24,555.00,VWS V14.01,2013-05-17 22:16:00,
2013-05-17 17:21:00,82.7,68.8,29.85,WNW,294,4.0,7.0,63,0.00,,,0.24,578.00,VWS V14.01,2013-05-17 22:21:00,
2013-05-17 17:26:00,82.8,68.5,29.85,West,279,6.0,10.0,62,0.00,,,0.24,536.00,VWS V14.01,2013-05-17 22:26:00,
2013-05-17 17:31:00,82.3,68.5,29.85,WNW,284,4.0,5.0,63,0.00,,,0.24,176.00,VWS V14.01,2013-05-17 22:31:00,
2013-05-17 17:36:00,81.8,68.9,29.86,SW,229,0.0,6.0,65,0.00,,,0.24,225.00,VWS V14.01,2013-05-17 22:36:00,
2013-05-17 17:41:00,81.4,68.5,29.86,West,281,4.0,5.0,65,0.00,,,0.24,476.00,VWS V14.01,2013-05-17 22:41:00,
2013-05-17 17:46:00,81.6,68.7,29.86,WNW,293,4.0,8.0,65,0.00,,,0.24,373.00,VWS V14.01,2013-05-17 22:46:00,
2013-05-17 17:51:00,81.4,68.5,29.86,West,281,0.0,5.0,65,0.00,,,0.24,127.00,VWS V14.01,2013-05-17 22:51:00,
2013-05-17 17:56:00,80.9,68.5,29.86,WSW,256,3.0,5.0,66,0.00,,,0.24,424.00,VWS V14.01,2013-05-17 22:56:00,
2013-05-17 18:01:00,80.8,68.4,29.86,WNW,288,3.0,6.0,66,0.00,,,0.24,160.00,VWS V14.01,2013-05-17 23:01:00,
2013-05-17 18:06:00,80.7,68.7,29.86,WNW,283,2.0,6.0,67,0.00,,,0.24,297.00,VWS V14.01,2013-05-17 23:06:00,
2013-05-17 18:11:00,80.4,68.4,29.86,West,279,0.0,1.0,67,0.00,,,0.24,213.00,VWS V14.01,2013-05-17 23:11:00,
2013-05-17 18:16:00,80.4,68.9,29.86,West,269,2.0,5.0,68,0.00,,,0.24,246.00,VWS V14.01,2013-05-17 23:16:00,
2013-05-17 18:21:00,80.5,68.5,29.86,WNW,285,5.0,5.0,67,0.00,,,0.24,100.00,VWS V14.01,2013-05-17 23:21:00,
2013-05-17 18:26:00,80.4,68.4,29.86,WNW,289,1.0,7.0,67,0.00,,,0.24,251.00,VWS V14.01,2013-05-17 23:26:00,
2013-05-17 18:31:00,80.5,68.5,29.86,NW,326,3.0,5.0,67,0.00,,,0.24,283.00,VWS V14.01,2013-05-17 23:31:00,
2013-05-17 18:36:00,80.6,68.6,29.86,WSW,245,1.0,5.0,67,0.00,,,0.24,139.00,VWS V14.01,2013-05-17 23:36:00,
2013-05-17 18:41:00,80.6,68.6,29.86,WSW,245,0.0,1.0,67,0.00,,,0.24,223.00,VWS V14.01,2013-05-17 23:41:00,
2013-05-17 18:46:00,80.8,68.8,29.86,West,263,2.0,5.0,67,0.00,,,0.24,207.00,VWS V14.01,2013-05-17 23:46:00,
2013-05-17 18:51:00,80.9,68.9,29.86,WSW,255,0.0,1.0,67,0.00,,,0.24,204.00,VWS V14.01,2013-05-17 23:51:00,
2013-05-17 18:56:00,80.9,68.9,29.87,WSW,256,0.0,3.0,67,0.00,,,0.24,156.00,VWS V14.01,2013-05-17 23:56:00,
2013-05-17 19:01:00,80.8,68.8,29.87,WSW,255,0.0,1.0,67,0.00,,,0.24,125.00,VWS V14.01,2013-05-18 00:01:00,
2013-05-17 19:06:00,80.7,68.7,29.87,WSW,257,0.0,3.0,67,0.00,,,0.24,90.00,VWS V14.01,2013-05-18 00:06:00,
2013-05-17 19:11:00,80.4,68.4,29.87,West,259,0.0,1.0,67,0.00,,,0.24,39.00,VWS V14.01,2013-05-18 00:11:00,
2013-05-17 19:16:00,80.0,68.5,29.87,West,259,0.0,2.0,68,0.00,,,0.24,67.00,VWS V14.01,2013-05-18 00:16:00,
2013-05-17 19:21:00,79.8,68.3,29.87,SSW,211,0.0,1.0,68,0.00,,,0.24,56.00,VWS V14.01,2013-05-18 00:21:00,
2013-05-17 19:26:00,79.5,68.4,29.87,SSW,211,0.0,1.0,69,0.00,,,0.24,54.00,VWS V14.01,2013-05-18 00:26:00,
2013-05-17 19:31:00,79.2,68.2,29.88,SSW,211,0.0,0.0,69,0.00,,,0.24,35.00,VWS V14.01,2013-05-18 00:31:00,
2013-05-17 19:36:00,78.9,68.3,29.87,SSW,211,0.0,1.0,70,0.00,,,0.24,21.00,VWS V14.01,2013-05-18 00:36:00,
2013-05-17 19:41:00,78.7,68.5,29.88,SW,225,3.0,3.0,71,0.00,,,0.24,16.00,VWS V14.01,2013-05-18 00:41:00,
2013-05-17 19:46:00,78.3,68.1,29.87,SW,230,0.0,3.0,71,0.00,,,0.24,14.00,VWS V14.01,2013-05-18 00:46:00,
2013-05-17 19:51:00,77.9,68.2,29.88,SW,229,0.0,1.0,72,0.00,,,0.24,9.00,VWS V14.01,2013-05-18 00:51:00,
2013-05-17 19:56:00,77.6,67.9,29.88,SW,230,0.0,3.0,72,0.00,,,0.24,5.00,VWS V14.01,2013-05-18 00:56:00,
2013-05-17 20:01:00,77.2,67.9,29.88,SW,229,0.0,1.0,73,0.00,,,0.24,0.00,VWS V14.01,2013-05-18 01:01:00,
2013-05-17 20:06:00,76.8,67.9,29.88,SW,230,0.0,1.0,74,0.00,,,0.24,0.00,VWS V14.01,2013-05-18 01:06:00,
2013-05-17 20:11:00,76.6,67.7,29.88,SW,230,0.0,0.0,74,0.00,,,0.24,0.00,VWS V14.01,2013-05-18 01:11:00,
2013-05-17 20:16:00,76.4,67.9,29.88,SW,230,0.0,0.0,75,0.00,,,0.24,0.00,VWS V14.01,2013-05-18 01:16:00,
2013-05-17 20:21:00,76.2,67.7,29.88,SW,229,0.0,0.0,75,0.00,,,0.24,0.00,VWS V14.01,2013-05-18 01:21:00,
2013-05-17 20:26:00,75.9,67.8,29.88,SW,230,0.0,0.0,76,0.00,,,0.24,0.00,VWS V14.01,2013-05-18 01:26:00,
2013-05-17 20:31:00,75.7,67.6,29.88,SW,230,0.0,0.0,76,0.00,,,0.24,0.00,VWS V14.01,2013-05-18 01:31:00,
2013-05-17 20:36:00,75.2,67.5,29.89,SW,229,0.0,0.0,77,0.00,,,0.24,0.00,VWS V14.01,2013-05-18 01:36:00,
2013-05-17 20:41:00,74.7,67.4,29.89,SW,230,0.0,0.0,78,0.00,,,0.24,0.00,VWS V14.01,2013-05-18 01:41:00,
2013-05-17 20:46:00,74.3,67.4,29.89,SW,229,0.0,0.0,79,0.00,,,0.24,0.00,VWS V14.01,2013-05-18 01:46:00,
2013-05-17 20:51:00,73.9,67.3,29.89,SW,229,0.0,0.0,80,0.00,,,0.24,0.00,VWS V14.01,2013-05-18 01:51:00,
2013-05-17 20:56:00,73.7,67.2,29.89,SW,230,0.0,0.0,80,0.00,,,0.24,0.00,VWS V14.01,2013-05-18 01:56:00,
2013-05-17 21:01:00,73.4,67.2,29.89,SW,230,0.0,0.0,81,0.00,,,0.24,0.00,VWS V14.01,2013-05-18 02:01:00,
2013-05-17 21:06:00,73.2,67.0,29.89,SW,230,0.0,0.0,81,0.00,,,0.24,0.00,VWS V14.01,2013-05-18 02:06:00,
2013-05-17 21:11:00,73.1,67.3,29.89,SW,230,0.0,0.0,82,0.00,,,0.24,0.00,VWS V14.01,2013-05-18 02:11:00,
2013-05-17 21:16:00,72.8,67.0,29.89,SW,229,0.0,0.0,82,0.00,,,0.24,0.00,VWS V14.01,2013-05-18 02:16:00,
2013-05-17 21:21:00,72.6,67.2,29.89,SW,229,0.0,0.0,83,0.00,,,0.24,0.00,VWS V14.01,2013-05-18 02:21:00,
2013-05-17 21:26:00,72.4,67.3,29.89,SW,229,0.0,0.0,84,0.00,,,0.24,0.00,VWS V14.01,2013-05-18 02:26:00,
2013-05-17 21:31:00,72.2,67.1,29.90,SW,230,0.0,0.0,84,0.00,,,0.24,0.00,VWS V14.01,2013-05-18 02:31:00,
2013-05-17 21:36:00,71.9,67.2,29.90,SW,229,0.0,0.0,85,0.00,,,0.24,0.00,VWS V14.01,2013-05-18 02:36:00,
2013-05-17 21:41:00,71.6,66.9,29.90,SW,229,0.0,0.0,85,0.00,,,0.24,0.00,VWS V14.01,2013-05-18 02:41:00,
2013-05-17 21:46:00,71.3,66.6,29.90,SW,229,0.0,0.0,85,0.00,,,0.24,0.00,VWS V14.01,2013-05-18 02:46:00,
2013-05-17 21:51:00,71.1,66.7,29.91,SW,230,0.0,0.0,86,0.00,,,0.24,0.00,VWS V14.01,2013-05-18 02:51:00,
2013-05-17 21:56:00,71.0,66.6,29.91,SW,230,0.0,0.0,86,0.00,,,0.24,0.00,VWS V14.01,2013-05-18 02:56:00,
2013-05-17 22:01:00,70.9,66.8,29.91,SW,230,0.0,0.0,87,0.00,,,0.24,0.00,VWS V14.01,2013-05-18 03:01:00,
2013-05-17 22:06:00,70.9,66.8,29.91,SW,229,0.0,0.0,87,0.00,,,0.24,0.00,VWS V14.01,2013-05-18 03:06:00,
2013-05-17 22:11:00,70.8,66.7,29.91,SW,230,0.0,0.0,87,0.00,,,0.24,0.00,VWS V14.01,2013-05-18 03:11:00,
2013-05-17 22:16:00,70.8,67.1,29.91,SW,230,0.0,0.0,88,0.00,,,0.24,0.00,VWS V14.01,2013-05-18 03:16:00,
2013-05-17 22:21:00,70.6,66.9,29.91,SW,230,0.0,0.0,88,0.00,,,0.24,0.00,VWS V14.01,2013-05-18 03:21:00,
2013-05-17 22:26:00,70.4,66.7,29.91,SW,229,0.0,0.0,88,0.00,,,0.24,0.00,VWS V14.01,2013-05-18 03:26:00,
2013-05-17 22:31:00,70.3,66.6,29.91,SW,230,0.0,0.0,88,0.00,,,0.24,0.00,VWS V14.01,2013-05-18 03:31:00,
2013-05-17 22:36:00,70.1,66.4,29.91,SW,230,0.0,0.0,88,0.00,,,0.24,0.00,VWS V14.01,2013-05-18 03:36:00,
2013-05-17 22:41:00,69.9,66.2,29.92,SW,229,0.0,0.0,88,0.00,,,0.24,0.00,VWS V14.01,2013-05-18 03:41:00,
2013-05-17 22:46:00,69.7,66.3,29.91,SW,229,0.0,0.0,89,0.00,,,0.24,0.00,VWS V14.01,2013-05-18 03:46:00,
2013-05-17 22:51:00,69.5,66.1,29.91,SW,229,0.0,0.0,89,0.00,,,0.24,0.00,VWS V14.01,2013-05-18 03:51:00,
2013-05-17 22:56:00,69.4,66.0,29.91,SW,230,0.0,0.0,89,0.00,,,0.24,0.00,VWS V14.01,2013-05-18 03:56:00,
2013-05-17 23:00:00,69.4,66.0,29.91,SW,229,0.0,0.0,89,0.00,,,0.24,0.00,VWS V14.01,2013-05-18 04:00:00,
2013-05-17 23:01:00,69.4,66.0,29.91,SW,229,0.0,0.0,89,0.00,,,0.24,0.00,VWS V14.01,2013-05-18 04:01:00,
2013-05-17 23:06:00,69.4,66.3,29.91,SW,230,0.0,0.0,90,0.00,,,0.24,0.00,VWS V14.01,2013-05-18 04:06:00,
2013-05-17 23:11:00,69.3,66.2,29.91,SW,229,0.0,0.0,90,0.00,,,0.24,0.00,VWS V14.01,2013-05-18 04:11:00,
2013-05-17 23:16:00,69.2,66.2,29.91,SW,229,0.0,0.0,90,0.00,,,0.24,0.00,VWS V14.01,2013-05-18 04:16:00,
2013-05-17 23:21:00,69.2,66.2,29.91,SW,230,0.0,0.0,90,0.00,,,0.24,0.00,VWS V14.01,2013-05-18 04:21:00,
2013-05-17 23:26:00,69.1,66.4,29.91,SW,230,0.0,0.0,91,0.00,,,0.24,0.00,VWS V14.01,2013-05-18 04:26:00,
2013-05-17 23:31:00,69.0,65.9,29.91,SW,230,0.0,0.0,90,0.00,,,0.24,0.00,VWS V14.01,2013-05-18 04:31:00,
2013-05-17 23:36:00,68.8,66.1,29.91,SW,230,0.0,0.0,91,0.00,,,0.24,0.00,VWS V14.01,2013-05-18 04:36:00,
2013-05-17 23:41:00,68.6,65.9,29.91,SW,229,0.0,0.0,91,0.00,,,0.24,0.00,VWS V14.01,2013-05-18 04:41:00,
2013-05-17 23:46:00,68.5,65.8,29.91,SW,229,0.0,0.0,91,0.00,,,0.24,0.00,VWS V14.01,2013-05-18 04:46:00,
2013-05-17 23:51:00,68.4,65.7,29.91,SW,229,0.0,0.0,91,0.00,,,0.24,0.00,VWS V14.01,2013-05-18 04:51:00,
2013-05-17 23:56:00,68.2,65.5,29.92,SW,230,0.0,0.0,91,0.00,,,0.24,0.00,VWS V14.01,2013-05-18 04:56:00,